Weather History for Franklin, NC

Change the Weather History Date:

Tuesday, November 20, 2012

  Actual Average (KTOC) Record (KTOC)
Temperature  
Mean Temperature 47 °F -  
Max Temperature 62 °F 61 °F 56 °F (2013)
Min Temperature 32 °F 41 °F 40 °F (2013)
Degree Days  
Heating Degree Days 18    
Moisture  
Dew Point 34 °F    
Average Humidity 72    
Maximum Humidity 100    
Minimum Humidity 30    
Precipitation  
Precipitation 0.00 in - - ()
Sea Level Pressure  
Sea Level Pressure 30.14 in    
Wind  
Wind Speed 1 mph (WNW)    
Max Wind Speed 9 mph    
Max Gust Speed 18 mph    
Visibility 9 miles    
Events      
Averages and records for this station are not official NWS values.
T = Trace of Precipitation, MM = Missing Value Source: NWS Daily Summary

Daily Weather History Graph

Daily Weather History Graph

Search for Another Location

Airport:

Trip Planner

Search our weather history database for the weather conditions in past years. The results will help you decide how hot, cold, wet, or windy it might be!

Date:

Astronomy

Nov. 20, 2012 Rise Set
Actual Time 7:13 AM EST 5:24 PM EST
Civil Twilight 6:46 AM EST 5:51 PM EST
Nautical Twilight 6:15 AM EST 6:22 PM EST
Astronomical Twilight 5:45 AM EST 6:53 PM EST
Moon 12:55 PM EST (11/20) No Moon Set
Length of Visible Light 11h 05m
Length of Day
10h 10m
Waxing Crescent, 51% of the Moon is Illuminated
Nov 20
Waxing Crescent
Nov 28
Full
Dec 6
Last Quarter
Dec 13
New
Dec 20
First Quarter

Hourly Weather History & Observations

Time (EST) Temp. Windchill Dew Point Humidity Pressure Visibility Wind Dir Wind Speed Gust Speed Precip Events Conditions
12:15 AM 37.4 °F - 35.6 °F 93% 30.22 in 10.0 mi Calm Calm - N/A   Overcast
12:35 AM 37.4 °F - 37.4 °F 100% 30.22 in 10.0 mi Calm Calm - N/A   Overcast
12:55 AM 37.4 °F - 37.4 °F 100% 30.21 in 10.0 mi Calm Calm - N/A   Mostly Cloudy
1:15 AM 35.6 °F - 35.6 °F 100% 30.20 in 7.0 mi Calm Calm - N/A   Scattered Clouds
1:35 AM 35.6 °F - 33.8 °F 93% 30.19 in 10.0 mi Calm Calm - N/A   Clear
1:55 AM 33.8 °F - 33.8 °F 100% 30.19 in 4.0 mi Calm Calm - N/A   Clear
2:15 AM 32.0 °F - 32.0 °F 100% 30.19 in 10.0 mi Calm Calm - N/A   Scattered Clouds
2:35 AM 33.8 °F - 32.0 °F 93% 30.19 in 10.0 mi Calm Calm - N/A   Scattered Clouds
2:55 AM 32.0 °F - 32.0 °F 100% 30.19 in 10.0 mi Calm Calm - N/A   Clear
3:15 AM 32.0 °F - 32.0 °F 100% 30.20 in 10.0 mi Calm Calm - N/A   Clear
3:35 AM 32.0 °F - 32.0 °F 100% 30.19 in 5.0 mi Calm Calm - N/A   Clear
7:15 AM 32.0 °F - 32.0 °F 100% 30.18 in 2.5 mi Calm Calm - N/A   Overcast
7:35 AM 33.8 °F - 32.0 °F 93% 30.19 in 5.0 mi Calm Calm - N/A   Overcast
7:55 AM 33.8 °F - 33.8 °F 100% 30.19 in 5.0 mi Calm Calm - N/A   Overcast
8:15 AM 35.6 °F - 33.8 °F 93% 30.20 in 5.0 mi Calm Calm - N/A   Mostly Cloudy
8:35 AM 35.6 °F - 35.6 °F 100% 30.20 in 7.0 mi Calm Calm - N/A   Mostly Cloudy
8:55 AM 37.4 °F - 35.6 °F 93% 30.21 in 10.0 mi Calm Calm - N/A   Scattered Clouds
9:15 AM 39.2 °F - 37.4 °F 93% 30.21 in 10.0 mi Calm Calm - N/A   Scattered Clouds
9:35 AM 41.0 °F - 39.2 °F 93% 30.20 in 10.0 mi Calm Calm - N/A   Scattered Clouds
9:55 AM 42.8 °F - 41.0 °F 93% 30.20 in 10.0 mi Calm Calm - N/A   Scattered Clouds
10:15 AM 46.4 °F - 42.8 °F 87% 30.19 in 10.0 mi Calm Calm - N/A   Clear
10:35 AM 46.4 °F - 39.2 °F 76% 30.19 in 10.0 mi Calm Calm - N/A   Scattered Clouds
10:55 AM 50.0 °F - 37.4 °F 62% 30.18 in 10.0 mi Calm Calm - N/A   Scattered Clouds
11:15 AM 51.8 °F - 39.2 °F 62% 30.17 in 10.0 mi Calm Calm - N/A   Mostly Cloudy
11:35 AM 53.6 °F - 37.4 °F 54% 30.16 in 10.0 mi Calm Calm - N/A   Overcast
11:55 AM 55.4 °F - 37.4 °F 51% 30.15 in 10.0 mi Calm Calm - N/A   Overcast
12:15 PM 59.0 °F - 32.0 °F 36% 30.13 in 10.0 mi NW 8.1 mph - N/A   Overcast
12:35 PM 60.8 °F - 32.0 °F 34% 30.12 in 10.0 mi WNW 4.6 mph - N/A   Mostly Cloudy
12:55 PM 60.8 °F - 32.0 °F 34% 30.11 in 10.0 mi Calm Calm - N/A   Scattered Clouds
1:15 PM 60.8 °F - 32.0 °F 34% 30.10 in 10.0 mi WNW 4.6 mph - N/A   Clear
1:55 PM 62.6 °F - 30.2 °F 30% 30.08 in 10.0 mi West 9.2 mph 18.4 mph N/A   Clear
2:15 PM 62.6 °F - 30.2 °F 30% 30.07 in 10.0 mi Calm Calm - N/A   Clear
2:35 PM 62.6 °F - 30.2 °F 30% 30.07 in 10.0 mi WNW 6.9 mph - N/A   Clear
2:55 PM 62.6 °F - 30.2 °F 30% 30.06 in 10.0 mi Calm Calm - N/A   Clear
3:15 PM 62.6 °F - 30.2 °F 30% 30.07 in 10.0 mi WNW 5.8 mph - N/A   Clear
3:35 PM 62.6 °F - 30.2 °F 30% 30.07 in 10.0 mi WNW 6.9 mph - N/A   Clear
3:55 PM 62.6 °F - 30.2 °F 30% 30.07 in 10.0 mi NW 9.2 mph - N/A   Scattered Clouds
4:15 PM 62.6 °F - 30.2 °F 30% 30.07 in 10.0 mi WNW 4.6 mph - N/A   Mostly Cloudy
4:35 PM 60.8 °F - 32.0 °F 34% 30.07 in 10.0 mi WNW 3.5 mph - N/A   Scattered Clouds
4:55 PM 60.8 °F - 32.0 °F 34% 30.07 in 10.0 mi WNW 8.1 mph - N/A   Clear
5:15 PM 59.0 °F - 32.0 °F 36% 30.07 in 10.0 mi NW 4.6 mph - N/A   Clear
5:35 PM 57.2 °F - 32.0 °F 38% 30.08 in 10.0 mi WNW 6.9 mph - N/A   Scattered Clouds
5:55 PM 48.2 °F - 35.6 °F 62% 30.08 in 10.0 mi Calm Calm - N/A   Mostly Cloudy
6:15 PM 46.4 °F 45.2 °F 35.6 °F 66% 30.09 in 10.0 mi West 3.5 mph - N/A   Overcast
6:35 PM 46.4 °F 44.3 °F 35.6 °F 66% 30.09 in 10.0 mi WSW 4.6 mph - N/A   Mostly Cloudy
6:55 PM 44.6 °F 43.1 °F 35.6 °F 71% 30.10 in 10.0 mi WSW 3.5 mph - N/A   Mostly Cloudy
7:15 PM 44.6 °F - 35.6 °F 71% 30.10 in 10.0 mi Calm Calm - N/A   Overcast
7:35 PM 44.6 °F - 37.4 °F 76% 30.11 in 10.0 mi Calm Calm - N/A   Overcast
7:55 PM 44.6 °F - 37.4 °F 76% 30.11 in 10.0 mi Calm Calm - N/A   Overcast
8:15 PM 44.6 °F 43.1 °F 35.6 °F 71% 30.11 in 10.0 mi WSW 3.5 mph - N/A   Overcast
8:35 PM 42.8 °F - 35.6 °F 76% 30.11 in 10.0 mi Calm Calm - N/A   Overcast
8:55 PM 41.0 °F - 35.6 °F 81% 30.12 in 10.0 mi Calm Calm - N/A   Scattered Clouds
9:15 PM 39.2 °F - 35.6 °F 87% 30.12 in 10.0 mi Calm Calm - N/A   Clear
9:35 PM 39.2 °F - 33.8 °F 81% 30.13 in 10.0 mi Calm Calm - N/A   Clear
9:55 PM 37.4 °F - 33.8 °F 87% 30.13 in 10.0 mi Calm Calm - N/A   Clear
10:15 PM 35.6 °F - 32.0 °F 87% 30.14 in 10.0 mi Calm Calm - N/A   Clear
10:35 PM 33.8 °F - 32.0 °F 93% 30.14 in 10.0 mi Calm Calm - N/A   Scattered Clouds
10:55 PM 33.8 °F - 32.0 °F 93% 30.14 in 10.0 mi Calm Calm - N/A   Scattered Clouds
11:15 PM 33.8 °F - 32.0 °F 93% 30.14 in 10.0 mi Calm Calm - N/A   Clear
11:35 PM 32.0 °F - 32.0 °F 100% 30.13 in 10.0 mi Calm Calm - N/A   Clear
11:55 PM 33.8 °F - 32.0 °F 93% 30.13 in 10.0 mi Calm Calm - N/A   Clear